Home > Time Zones > World Clock > Weather > Norway > Sola > Past weeks

Flag for Norway Weather past 2 weeks in Sola, Norway

Now
50 °F

Passing clouds.


Feels Like: 49 °F
Forecast: 54 / 60 °F
Wind: 3 mph from West

Location: Stavanger / Sola

Current Time: Aug 23, 2014 at 6:15:23 AM

Latest Report: Aug 23, 2014 at 5:00 AM


Visibility: 28 mi

Pressure: 29.59 "Hg

Humidity: 93%

Dew point: 48 °F

Location of SolaLocation

Historic Weather in Sola — Graph

°F

Sola temperature yesterday

Maximum temperature yesterday: 57 °F (at 1:00 PM)
Minimum temperature yesterday: 48 °F (at 6:00 AM)
Average temperature yesterday: 53 °F

Past Weeks' High & Low Weather Summary

 TemperatureHumidityPressure
High71 °F (Aug 10, 6:00 PM)97% (Aug 18, 2:00 AM)29.96 "Hg (Aug 18, 2:00 AM)
Low48 °F (Aug 22, 6:00 AM)46% (Aug 9, 3:00 PM)29.21 "Hg (Aug 18, 9:00 AM)
Average59 °F79%29.54 "Hg
* Reported Aug 8 4:00 AM — Aug 23 4:00 AM, Sola, Weather by CustomWeather, © 2014

Note: Actual official high and low records may vary slightly from our data, if they occured in-between our weather recording intervals... More about our weather records

Advertising

Sola weather history for previous 24 hours

 ConditionsComfort  
Time TempWeatherWind HumidityBarometerVisibility
4:00 AM
Aug 23
49 °FClear.2 mph93%29.59 "Hg25 mi
3:00 AM51 °FOvercast.3 mph93%29.60 "Hg19 mi
2:00 AM51 °FOvercast.2 mph90%29.60 "Hg31 mi
1:00 AM53 °FOvercast.2 mph86%29.61 "Hg31 mi
12:00 AM54 °FOvercast.3 mph83%29.61 "Hg31 mi
11:00 PM
Aug 22
52 °FOvercast.2 mph93%29.61 "Hg22 mi
10:00 PM53 °FPassing clouds.2 mph90%29.60 "Hg28 mi
9:00 PM55 °FOvercast.2 mph86%29.60 "Hg28 mi
8:00 PM56 °FPartly sunny.1 mph81%29.60 "Hg31 mi
7:00 PM57 °FPassing clouds.1 mph78%29.60 "Hg25 mi
6:00 PM56 °FPartly sunny.2 mph84%29.61 "Hg25 mi
5:00 PM54 °FLight mixture of precip. Dense fog.3 mph87%29.61 "Hg1 mi
4:00 PM56 °FPartly sunny.5 mph81%29.61 "Hg28 mi
3:00 PM55 °FLight mixture of precip. Partly sunny.5 mph85%29.61 "Hg7 mi
2:00 PM56 °FLight rain. Haze.3 mph84%29.61 "Hg9 mi
1:00 PM57 °FOvercast.5 mph76%29.61 "Hg25 mi
12:00 PM57 °FRain showers. Overcast.5 mph82%29.61 "Hg19 mi
11:00 AM56 °FPartly sunny.2 mph75%29.62 "Hg28 mi
10:00 AM54 °FLight rain. Passing clouds.1 mph86%29.62 "Hg19 mi
9:00 AM52 °FLight rain. Sunny.No wind94%29.62 "Hg11 mi
8:00 AM50 °FPassing clouds.No wind93%29.62 "Hg22 mi
7:00 AM50 °FSunny.No wind95%29.63 "Hg28 mi
6:00 AM48 °FClear.1 mph96%29.64 "Hg16 mi
Weather by CustomWeather, © 2014

See weather overviewHow to use our weather pages